| time (UTC) | temp C | wind direction | speed KPH | gust KPH | rain 1hr cm | rain 24hr cm | rain mn cm | humidity % | barometer mb |
| 20260507085308 | 10 | 112 | 0.0 | 1.6 | 0.00 | 0.00 | 0.00 | 65 | 1013.3 |
| 20260507084805 | 10 | 163 | 1.6 | 1.6 | 0.00 | 0.00 | 0.00 | 65 | 1013.2 |
| 20260507084301 | 10 | 137 | 0.0 | 0.0 | 0.00 | 0.00 | 0.00 | 64 | 1013.2 |
| 20260507083759 | 11 | 128 | 0.0 | 0.0 | 0.00 | 0.00 | 0.00 | 62 | 1013.5 |
| 20260507083255 | 11 | 153 | 0.0 | 0.0 | 0.00 | 0.00 | 0.00 | 60 | 1013.4 |
| 20260507082751 | 12 | 126 | 0.0 | 0.0 | 0.00 | 0.00 | 0.00 | 56 | 1013.4 |
| 20260507082247 | 12 | 151 | 0.0 | 0.0 | 0.00 | 0.00 | 0.00 | 55 | 1013.2 |
| 20260507081744 | 12 | 151 | 0.0 | 0.0 | 0.00 | 0.00 | 0.00 | 55 | 1013.4 |
| 20260507081240 | 13 | 134 | 0.0 | 0.0 | 0.00 | 0.00 | 0.00 | 52 | 1013.2 |
| 20260507080737 | 13 | 132 | 0.0 | 0.0 | 0.00 | 0.00 | 0.00 | 51 | 1013.2 |
| 20260507080233 | 13 | 155 | 0.0 | 0.0 | 0.00 | 0.00 | 0.00 | 50 | 1013.2 |
| 20260507075729 | 14 | 155 | 0.0 | 0.0 | 0.00 | 0.00 | 0.00 | 47 | 1013.4 |
| 20260507075225 | 15 | 141 | 0.0 | 0.0 | 0.00 | 0.00 | 0.00 | 47 | 1013.2 |
| 20260507074721 | 15 | 119 | 0.0 | 0.0 | 0.00 | 0.00 | 0.00 | 45 | 1013.5 |
| 20260507074220 | 16 | 138 | 1.6 | 1.6 | 0.00 | 0.00 | 0.00 | 46 | 1013.2 |
| 20260507073716 | 16 | 169 | 1.6 | 3.2 | 0.00 | 0.00 | 0.00 | 42 | 1013.1 |
| 20260507073213 | 16 | 131 | 1.6 | 1.6 | 0.00 | 0.00 | 0.00 | 44 | 1013.2 |
| 20260507072711 | 16 | 203 | 0.0 | 1.6 | 0.00 | 0.00 | 0.00 | 44 | 1013.2 |
| 20260507072208 | 16 | 181 | 1.6 | 3.2 | 0.00 | 0.00 | 0.00 | 43 | 1013.2 |
| 20260507071705 | 16 | 224 | 3.2 | 3.2 | 0.00 | 0.00 | 0.00 | 42 | 1013.2 |
| 20260507071201 | 16 | 217 | 3.2 | 4.8 | 0.00 | 0.00 | 0.00 | 41 | 1013.3 |
| 20260507070659 | 16 | 148 | 0.0 | 0.0 | 0.00 | 0.00 | 0.00 | 41 | 1013.2 |
| 20260507070155 | 16 | 189 | 3.2 | 4.8 | 0.00 | 0.00 | 0.00 | 41 | 1013.3 |
| 20260507065652 | 16 | 163 | 6.4 | 9.7 | 0.00 | 0.00 | 0.00 | 42 | 1013.1 |
| 20260507065149 | 16 | 189 | 6.4 | 9.7 | 0.00 | 0.00 | 0.00 | 41 | 1013.2 |
| 20260507064646 | 16 | 132 | 6.4 | 9.7 | 0.00 | 0.00 | 0.00 | 41 | 1013.3 |
| 20260507064144 | 16 | 180 | 4.8 | 4.8 | 0.00 | 0.00 | 0.00 | 45 | 1013.3 |
| 20260507063642 | 15 | 177 | 4.8 | 9.7 | 0.00 | 0.00 | 0.00 | 47 | 1013.3 |
| 20260507063138 | 16 | 149 | 0.0 | 0.0 | 0.00 | 0.00 | 0.00 | 48 | 1013.5 |
| 20260507062635 | 17 | 148 | 1.6 | 1.6 | 0.00 | 0.00 | 0.00 | 46 | 1013.3 |
| 20260507062133 | 17 | 219 | 1.6 | 3.2 | 0.00 | 0.00 | 0.00 | 41 | 1013.4 |
| 20260507061631 | 17 | 189 | 3.2 | 3.2 | 0.00 | 0.00 | 0.00 | 40 | 1013.4 |
| 20260507061128 | 17 | 147 | 0.0 | 1.6 | 0.00 | 0.00 | 0.00 | 43 | 1013.4 |
| 20260507060626 | 17 | 173 | 1.6 | 3.2 | 0.00 | 0.00 | 0.00 | 41 | 1013.1 |
| 20260507060122 | 17 | 326 | 9.7 | 12.9 | 0.00 | 0.00 | 0.00 | 40 | 1013.4 |
| 20260507055618 | 17 | 166 | 1.6 | 1.6 | 0.00 | 0.00 | 0.00 | 43 | 1013.4 |
| 20260507055114 | 17 | 142 | 0.0 | 0.0 | 0.00 | 0.00 | 0.00 | 43 | 1013.2 |
| 20260507054610 | 17 | 155 | 0.0 | 0.0 | 0.00 | 0.00 | 0.00 | 42 | 1013.2 |
| 20260507054107 | 17 | 159 | 1.6 | 1.6 | 0.00 | 0.00 | 0.00 | 41 | 1013.0 |
| 20260507053605 | 17 | 218 | 3.2 | 4.8 | 0.00 | 0.00 | 0.00 | 41 | 1013.4 |
| 20260507053104 | 17 | 271 | 6.4 | 9.7 | 0.00 | 0.00 | 0.00 | 43 | 1013.3 |
| 20260507052601 | 17 | 241 | 4.8 | 4.8 | 0.00 | 0.00 | 0.00 | 44 | 1013.1 |
| 20260507052058 | 17 | 140 | 3.2 | 3.2 | 0.00 | 0.00 | 0.00 | 42 | 1013.1 |
| 20260507051555 | 17 | 200 | 1.6 | 1.6 | 0.00 | 0.00 | 0.00 | 42 | 1013.2 |
| 20260507051052 | 17 | 321 | 3.2 | 4.8 | 0.00 | 0.00 | 0.00 | 42 | 1013.1 |
| 20260507050549 | 17 | 131 | 0.0 | 0.0 | 0.00 | 0.00 | 0.00 | 43 | 1012.9 |
| 20260507050045 | 17 | 256 | 4.8 | 4.8 | 0.00 | 0.00 | 0.00 | 45 | 1013.0 |
| 20260507045542 | 17 | 155 | 0.0 | 1.6 | 0.00 | 0.00 | 0.00 | 43 | 1013.1 |
| 20260507045039 | 17 | 172 | 6.4 | 6.4 | 0.00 | 0.00 | 0.00 | 42 | 1013.1 |
| 20260507044536 | 18 | 173 | 6.4 | 6.4 | 0.00 | 0.00 | 0.00 | 42 | 1013.0 |
| 20260507044033 | 18 | 148 | 4.8 | 6.4 | 0.00 | 0.00 | 0.00 | 39 | 1012.9 |
| 20260507043528 | 18 | 214 | 4.8 | 4.8 | 0.00 | 0.00 | 0.00 | 40 | 1013.2 |
| 20260507043026 | 18 | 185 | 1.6 | 3.2 | 0.00 | 0.00 | 0.00 | 40 | 1013.0 |
| 20260507042522 | 18 | 210 | 1.6 | 3.2 | 0.00 | 0.00 | 0.00 | 40 | 1013.0 |
| 20260507042017 | 18 | 224 | 9.7 | 11.3 | 0.00 | 0.00 | 0.00 | 39 | 1013.2 |
| 20260507041515 | 18 | 157 | 3.2 | 3.2 | 0.00 | 0.00 | 0.00 | 41 | 1013.2 |
| 20260507041011 | 18 | 198 | 1.6 | 3.2 | 0.00 | 0.00 | 0.00 | 42 | 1013.2 |
| 20260507040508 | 18 | 141 | 0.0 | 0.0 | 0.00 | 0.00 | 0.00 | 42 | 1013.1 |
| 20260507040004 | 19 | 209 | 4.8 | 6.4 | 0.00 | 0.00 | 0.00 | 39 | 1013.1 |
| 20260507035500 | 19 | 249 | 4.8 | 6.4 | 0.00 | 0.00 | 0.00 | 39 | 1012.9 |
| 20260507034956 | 19 | 218 | 4.8 | 6.4 | 0.00 | 0.00 | 0.00 | 38 | 1012.9 |
| 20260507034453 | 19 | 184 | 1.6 | 3.2 | 0.00 | 0.00 | 0.00 | 40 | 1012.7 |
| 20260507033952 | 18 | 204 | 4.8 | 4.8 | 0.00 | 0.00 | 0.00 | 40 | 1012.4 |
| 20260507033449 | 18 | 142 | 0.0 | 0.0 | 0.00 | 0.00 | 0.00 | 42 | 1012.6 |
| 20260507032946 | 18 | 147 | 3.2 | 3.2 | 0.00 | 0.00 | 0.00 | 42 | 1012.3 |
| 20260507032443 | 19 | 152 | 1.6 | 1.6 | 0.00 | 0.00 | 0.00 | 41 | 1012.3 |
| 20260507031939 | 19 | 164 | 3.2 | 3.2 | 0.00 | 0.00 | 0.00 | 40 | 1012.4 |
| 20260507031435 | 20 | 182 | 3.2 | 4.8 | 0.00 | 0.00 | 0.00 | 39 | 1012.4 |
| 20260507030932 | 20 | 157 | 1.6 | 1.6 | 0.00 | 0.00 | 0.00 | 38 | 1012.3 |
| 20260507030430 | 20 | 147 | 4.8 | 6.4 | 0.00 | 0.00 | 0.00 | 39 | 1012.3 |
| 20260507025927 | 20 | 175 | 3.2 | 3.2 | 0.00 | 0.00 | 0.00 | 36 | 1012.1 |
| 20260507025424 | 20 | 150 | 3.2 | 3.2 | 0.00 | 0.00 | 0.00 | 37 | 1012.3 |
| 20260507024922 | 21 | 237 | 4.8 | 4.8 | 0.00 | 0.00 | 0.00 | 36 | 1012.3 |
| 20260507024419 | 21 | 187 | 3.2 | 3.2 | 0.00 | 0.00 | 0.00 | 36 | 1012.3 |
| 20260507023914 | 21 | 189 | 3.2 | 3.2 | 0.00 | 0.00 | 0.00 | 35 | 1012.0 |
| 20260507023412 | 21 | 267 | 14.5 | 17.7 | 0.00 | 0.00 | 0.00 | 35 | 1012.4 |
| 20260507022909 | 21 | 203 | 6.4 | 6.4 | 0.00 | 0.00 | 0.00 | 35 | 1011.9 |
| 20260507022405 | 21 | 254 | 11.3 | 16.1 | 0.00 | 0.00 | 0.00 | 34 | 1011.8 |
| 20260507021901 | 21 | 241 | 6.4 | 6.4 | 0.00 | 0.00 | 0.00 | 34 | 1012.2 |
| 20260507021356 | 22 | 271 | 11.3 | 14.5 | 0.00 | 0.00 | 0.00 | 34 | 1012.2 |
| 20260507020855 | 22 | 265 | 11.3 | 12.9 | 0.00 | 0.00 | 0.00 | 34 | 1012.1 |
| 20260507020351 | 22 | 265 | 9.7 | 11.3 | 0.00 | 0.00 | 0.00 | 33 | 1012.0 |
| 20260507015848 | 22 | 286 | 9.7 | 14.5 | 0.00 | 0.00 | 0.00 | 33 | 1012.0 |
| 20260507015346 | 22 | 242 | 11.3 | 12.9 | 0.00 | 0.00 | 0.00 | 33 | 1012.0 |
| 20260507014843 | 22 | 309 | 9.7 | 12.9 | 0.00 | 0.00 | 0.00 | 33 | 1011.9 |
| 20260507014339 | 22 | 271 | 9.7 | 14.5 | 0.00 | 0.00 | 0.00 | 32 | 1011.7 |
| 20260507013836 | 23 | 295 | 16.1 | 17.7 | 0.00 | 0.00 | 0.00 | 32 | 1011.4 |
| 20260507013333 | 23 | 187 | 1.6 | 1.6 | 0.00 | 0.00 | 0.00 | 33 | 1011.7 |
| 20260507012831 | 23 | 199 | 4.8 | 4.8 | 0.00 | 0.00 | 0.00 | 33 | 1011.7 |
| 20260507012326 | 23 | 204 | 3.2 | 3.2 | 0.00 | 0.00 | 0.00 | 34 | 1011.7 |
| 20260507011823 | 23 | 263 | 3.2 | 3.2 | 0.00 | 0.00 | 0.00 | 34 | 1011.9 |
| 20260507011320 | 23 | 237 | 6.4 | 9.7 | 0.00 | 0.00 | 0.00 | 36 | 1011.9 |
| 20260507010820 | 23 | 227 | 4.8 | 6.4 | 0.00 | 0.00 | 0.00 | 34 | 1011.8 |
| 20260507010315 | 23 | 330 | 9.7 | 12.9 | 0.00 | 0.00 | 0.00 | 34 | 1011.9 |
| 20260507005813 | 23 | 309 | 6.4 | 11.3 | 0.00 | 0.00 | 0.00 | 33 | 1011.8 |
| 20260507005310 | 23 | 258 | 9.7 | 14.5 | 0.00 | 0.00 | 0.00 | 34 | 1012.0 |
| 20260507004807 | 23 | 325 | 8.0 | 11.3 | 0.00 | 0.00 | 0.00 | 35 | 1011.7 |
| 20260507004304 | 23 | 249 | 8.0 | 11.3 | 0.00 | 0.00 | 0.00 | 37 | 1011.8 |
| 20260507003800 | 23 | 311 | 20.9 | 25.7 | 0.00 | 0.00 | 0.00 | 36 | 1011.7 |
| 20260507003256 | 23 | 283 | 11.3 | 16.1 | 0.00 | 0.00 | 0.00 | 36 | 1011.9 |
| 20260507002752 | 23 | 275 | 8.0 | 9.7 | 0.00 | 0.00 | 0.00 | 37 | 1011.6 |
| 20260507002248 | 23 | 302 | 9.7 | 12.9 | 0.00 | 0.00 | 0.00 | 37 | 1011.7 |
| 20260507001745 | 23 | 226 | 14.5 | 17.7 | 0.00 | 0.00 | 0.00 | 36 | 1011.7 |
| 20260507001242 | 23 | 254 | 8.0 | 12.9 | 0.00 | 0.00 | 0.00 | 38 | 1011.6 |
| 20260507000738 | 23 | 256 | 6.4 | 9.7 | 0.00 | 0.00 | 0.00 | 39 | 1011.6 |
| 20260507000234 | 23 | 260 | 14.5 | 17.7 | 0.00 | 0.00 | 0.00 | 41 | 1011.6 |
| 20260506235731 | 24 | 234 | 6.4 | 6.4 | 0.00 | 0.00 | 0.00 | 40 | 1011.3 |
| 20260506235227 | 23 | 237 | 9.7 | 12.9 | 0.00 | 0.00 | 0.00 | 41 | 1011.4 |
| 20260506234724 | 23 | 262 | 14.5 | 16.1 | 0.00 | 0.00 | 0.00 | 41 | 1011.3 |
| 20260506234221 | 23 | 251 | 16.1 | 22.5 | 0.00 | 0.00 | 0.00 | 42 | 1011.3 |
| 20260506233719 | 23 | 252 | 11.3 | 16.1 | 0.00 | 0.00 | 0.00 | 42 | 1011.9 |
| 20260506233215 | 23 | 233 | 19.3 | 22.5 | 0.00 | 0.00 | 0.00 | 40 | 1011.6 |
| 20260506232711 | 24 | 323 | 9.7 | 12.9 | 0.00 | 0.00 | 0.00 | 40 | 1011.8 |
| 20260506232206 | 24 | 285 | 16.1 | 22.5 | 0.00 | 0.00 | 0.00 | 38 | 1011.7 |
| 20260506231704 | 24 | 238 | 11.3 | 14.5 | 0.00 | 0.00 | 0.00 | 38 | 1011.6 |
| 20260506231203 | 23 | 275 | 12.9 | 16.1 | 0.00 | 0.00 | 0.00 | 38 | 1011.4 |
| 20260506230658 | 23 | 259 | 6.4 | 6.4 | 0.00 | 0.00 | 0.00 | 38 | 1011.4 |
| 20260506230155 | 24 | 293 | 19.3 | 22.5 | 0.00 | 0.00 | 0.00 | 36 | 1011.7 |
| 20260506225652 | 25 | 304 | 16.1 | 17.7 | 0.00 | 0.00 | 0.00 | 35 | 1011.7 |
| 20260506225149 | 25 | 14 | 3.2 | 4.8 | 0.00 | 0.00 | 0.00 | 35 | 1011.4 |
| 20260506224645 | 25 | 242 | 6.4 | 6.4 | 0.00 | 0.00 | 0.00 | 36 | 1011.7 |
| 20260506224142 | 25 | 227 | 11.3 | 12.9 | 0.00 | 0.00 | 0.00 | 34 | 1011.8 |
| 20260506223639 | 25 | 228 | 11.3 | 14.5 | 0.00 | 0.00 | 0.00 | 32 | 1011.6 |
| 20260506223134 | 25 | 228 | 9.7 | 11.3 | 0.00 | 0.00 | 0.00 | 33 | 1011.7 |
| 20260506222632 | 25 | 291 | 12.9 | 14.5 | 0.00 | 0.00 | 0.00 | 32 | 1011.7 |
| 20260506222128 | 26 | 272 | 19.3 | 24.1 | 0.00 | 0.00 | 0.00 | 30 | 1011.7 |
| 20260506221626 | 26 | 292 | 11.3 | 14.5 | 0.00 | 0.00 | 0.00 | 29 | 1011.9 |
| 20260506221123 | 25 | 263 | 12.9 | 17.7 | 0.00 | 0.00 | 0.00 | 29 | 1011.8 |
| 20260506220620 | 26 | 272 | 12.9 | 20.9 | 0.00 | 0.00 | 0.00 | 28 | 1011.8 |
| 20260506220115 | 26 | 214 | 11.3 | 16.1 | 0.00 | 0.00 | 0.00 | 28 | 1012.0 |
| 20260506215612 | 26 | 255 | 8.0 | 9.7 | 0.00 | 0.00 | 0.00 | 29 | 1011.7 |
| 20260506215107 | 25 | 152 | 12.9 | 16.1 | 0.00 | 0.00 | 0.00 | 29 | 1011.9 |
| 20260506214605 | 25 | 255 | 9.7 | 12.9 | 0.00 | 0.00 | 0.00 | 28 | 1011.9 |
| 20260506214102 | 26 | 277 | 16.1 | 22.5 | 0.00 | 0.00 | 0.00 | 28 | 1011.9 |
| 20260506213600 | 26 | 150 | 14.5 | 20.9 | 0.00 | 0.00 | 0.00 | 33 | 1011.4 |
| 20260506213057 | 25 | 173 | 1.6 | 3.2 | 0.00 | 0.00 | 0.00 | 37 | 1011.8 |
| 20260506212554 | 26 | 194 | 4.8 | 9.7 | 0.00 | 0.00 | 0.00 | 36 | 1011.9 |
| 20260506212048 | 26 | 147 | 1.6 | 1.6 | 0.00 | 0.00 | 0.00 | 37 | 1012.1 |
| 20260506211545 | 25 | 190 | 3.2 | 3.2 | 0.00 | 0.00 | 0.00 | 35 | 1012.0 |
| 20260506211042 | 24 | 172 | 14.5 | 20.9 | 0.00 | 0.00 | 0.00 | 37 | 1012.0 |
| 20260506210538 | 25 | 147 | 4.8 | 6.4 | 0.00 | 0.00 | 0.00 | 39 | 1012.1 |
| 20260506210035 | 25 | 181 | 14.5 | 22.5 | 0.00 | 0.00 | 0.00 | 38 | 1011.8 |
| 20260506205532 | 25 | 160 | 11.3 | 14.5 | 0.00 | 0.00 | 0.00 | 37 | 1012.0 |
| 20260506205027 | 25 | 192 | 19.3 | 24.1 | 0.00 | 0.00 | 0.00 | 38 | 1011.9 |
| 20260506204525 | 25 | 159 | 9.7 | 11.3 | 0.00 | 0.00 | 0.00 | 38 | 1011.9 |
| 20260506204022 | 23 | 150 | 12.9 | 14.5 | 0.00 | 0.00 | 0.00 | 39 | 1012.1 |
| 20260506203520 | 24 | 170 | 14.5 | 17.7 | 0.00 | 0.00 | 0.00 | 39 | 1012.0 |
| 20260506203016 | 24 | 205 | 12.9 | 14.5 | 0.00 | 0.00 | 0.00 | 38 | 1012.2 |
| 20260506202514 | 24 | 159 | 3.2 | 4.8 | 0.00 | 0.00 | 0.00 | 41 | 1012.0 |
| 20260506202010 | 23 | 194 | 14.5 | 17.7 | 0.00 | 0.00 | 0.00 | 38 | 1012.3 |
| 20260506201508 | 23 | 180 | 9.7 | 14.5 | 0.00 | 0.00 | 0.00 | 39 | 1012.4 |
| 20260506200958 | 23 | 189 | 14.5 | 17.7 | 0.00 | 0.00 | 0.00 | 40 | 1012.3 |
| 20260506200454 | 23 | 200 | 12.9 | 16.1 | 0.00 | 0.00 | 0.00 | 39 | 1012.1 |
| 20260506195945 | 23 | 187 | 14.5 | 16.1 | 0.00 | 0.00 | 0.00 | 38 | 1012.4 |
| 20260506195442 | 23 | 179 | 9.7 | 12.9 | 0.00 | 0.00 | 0.00 | 40 | 1012.4 |
| 20260506194939 | 23 | 165 | 9.7 | 16.1 | 0.00 | 0.00 | 0.00 | 39 | 1012.6 |
| 20260506194437 | 23 | 150 | 9.7 | 12.9 | 0.00 | 0.00 | 0.00 | 40 | 1012.6 |
| 20260506193933 | 23 | 168 | 9.7 | 12.9 | 0.00 | 0.00 | 0.00 | 40 | 1012.6 |
| 20260506193430 | 23 | 163 | 8.0 | 12.9 | 0.00 | 0.00 | 0.00 | 39 | 1012.7 |
| 20260506192926 | 23 | 169 | 8.0 | 11.3 | 0.00 | 0.00 | 0.00 | 40 | 1012.6 |
| 20260506192423 | 22 | 165 | 9.7 | 12.9 | 0.00 | 0.00 | 0.00 | 40 | 1012.9 |
| 20260506191915 | 23 | 148 | 9.7 | 14.5 | 0.00 | 0.00 | 0.00 | 41 | 1013.1 |
| 20260506191411 | 22 | 179 | 8.0 | 11.3 | 0.00 | 0.00 | 0.00 | 42 | 1012.9 |
| 20260506190908 | 23 | 132 | 4.8 | 4.8 | 0.00 | 0.00 | 0.00 | 40 | 1013.2 |
| 20260506190404 | 22 | 154 | 12.9 | 16.1 | 0.00 | 0.00 | 0.00 | 41 | 1013.2 |
| 20260506185901 | 22 | 170 | 1.6 | 3.2 | 0.00 | 0.00 | 0.00 | 42 | 1013.3 |
| 20260506185358 | 22 | 174 | 3.2 | 6.4 | 0.00 | 0.00 | 0.00 | 41 | 1013.3 |
| 20260506184855 | 22 | 143 | 4.8 | 4.8 | 0.00 | 0.00 | 0.00 | 41 | 1013.6 |
| 20260506184352 | 22 | 189 | 9.7 | 11.3 | 0.00 | 0.00 | 0.00 | 42 | 1013.6 |
| 20260506183850 | 22 | 184 | 6.4 | 6.4 | 0.00 | 0.00 | 0.00 | 42 | 1013.6 |
| 20260506183344 | 22 | 192 | 9.7 | 14.5 | 0.00 | 0.00 | 0.00 | 42 | 1013.7 |
| 20260506182842 | 22 | 219 | 9.7 | 16.1 | 0.00 | 0.00 | 0.00 | 42 | 1013.6 |
| 20260506182339 | 22 | 190 | 11.3 | 12.9 | 0.00 | 0.00 | 0.00 | 41 | 1013.6 |
| 20260506181837 | 21 | 183 | 11.3 | 12.9 | 0.00 | 0.00 | 0.00 | 42 | 1013.6 |
| 20260506181335 | 21 | 167 | 9.7 | 12.9 | 0.00 | 0.00 | 0.00 | 44 | 1013.8 |
| 20260506180831 | 21 | 154 | 17.7 | 17.7 | 0.00 | 0.00 | 0.00 | 43 | 1013.7 |
| 20260506180327 | 21 | 194 | 8.0 | 16.1 | 0.00 | 0.00 | 0.00 | 44 | 1013.6 |
| 20260506175824 | 21 | 132 | 4.8 | 9.7 | 0.00 | 0.00 | 0.00 | 42 | 1013.9 |
| 20260506175321 | 21 | 239 | 6.4 | 6.4 | 0.00 | 0.00 | 0.00 | 44 | 1013.8 |
| 20260506174818 | 20 | 193 | 9.7 | 16.1 | 0.00 | 0.00 | 0.00 | 44 | 1013.8 |
| 20260506174315 | 20 | 186 | 8.0 | 12.9 | 0.00 | 0.00 | 0.00 | 44 | 1013.9 |
| 20260506173813 | 20 | 166 | 3.2 | 4.8 | 0.00 | 0.00 | 0.00 | 45 | 1013.8 |
| 20260506173309 | 20 | 178 | 9.7 | 20.9 | 0.00 | 0.00 | 0.00 | 46 | 1013.7 |
| 20260506172807 | 20 | 156 | 4.8 | 6.4 | 0.00 | 0.00 | 0.00 | 47 | 1013.9 |
| 20260506172306 | 20 | 185 | 4.8 | 6.4 | 0.00 | 0.00 | 0.00 | 46 | 1013.7 |
| 20260506171801 | 19 | 160 | 17.7 | 27.4 | 0.00 | 0.00 | 0.00 | 47 | 1013.8 |
| 20260506171257 | 19 | 153 | 6.4 | 11.3 | 0.00 | 0.00 | 0.00 | 48 | 1013.8 |
| 20260506170755 | 18 | 247 | 9.7 | 12.9 | 0.00 | 0.00 | 0.00 | 49 | 1014.2 |
| 20260506170251 | 18 | 172 | 4.8 | 6.4 | 0.00 | 0.00 | 0.00 | 53 | 1013.8 |
| 20260506165750 | 18 | 103 | 3.2 | 3.2 | 0.00 | 0.00 | 0.00 | 54 | 1013.9 |
| 20260506165247 | 18 | 156 | 3.2 | 4.8 | 0.00 | 0.00 | 0.00 | 57 | 1014.0 |
| 20260506164744 | 17 | 212 | 4.8 | 9.7 | 0.00 | 0.00 | 0.00 | 56 | 1014.0 |
| 20260506164241 | 17 | 181 | 4.8 | 4.8 | 0.00 | 0.00 | 0.00 | 55 | 1014.0 |
| 20260506163738 | 17 | 157 | 3.2 | 4.8 | 0.00 | 0.00 | 0.00 | 54 | 1014.3 |
| 20260506163232 | 17 | 151 | 4.8 | 4.8 | 0.00 | 0.00 | 0.00 | 53 | 1014.2 |
| 20260506162729 | 17 | 134 | 0.0 | 1.6 | 0.00 | 0.00 | 0.00 | 57 | 1014.3 |
| 20260506162227 | 16 | 131 | 1.6 | 3.2 | 0.00 | 0.00 | 0.00 | 61 | 1014.2 |
| 20260506161724 | 16 | 156 | 3.2 | 4.8 | 0.00 | 0.00 | 0.00 | 62 | 1014.0 |
| 20260506161221 | 15 | 135 | 3.2 | 3.2 | 0.00 | 0.00 | 0.00 | 65 | 1014.2 |
| 20260506160718 | 14 | 158 | 1.6 | 1.6 | 0.00 | 0.00 | 0.00 | 66 | 1014.2 |
| 20260506160215 | 13 | 154 | 4.8 | 4.8 | 0.00 | 0.00 | 0.00 | 66 | 1014.2 |
| 20260506155713 | 13 | 200 | 4.8 | 6.4 | 0.00 | 0.00 | 0.00 | 69 | 1014.4 |
| 20260506155210 | 12 | 145 | 4.8 | 6.4 | 0.00 | 0.00 | 0.00 | 69 | 1014.5 |
| 20260506153312 | 12 | 146 | 1.6 | 1.6 | 0.00 | 0.00 | 0.00 | 69 | 1014.4 |
| 20260506152809 | 12 | 142 | 1.6 | 1.6 | 0.00 | 0.00 | 0.00 | 69 | 1014.5 |
| 20260506152306 | 12 | 130 | 1.6 | 1.6 | 0.00 | 0.00 | 0.00 | 68 | 1014.4 |
| 20260506151805 | 11 | 144 | 0.0 | 0.0 | 0.00 | 0.00 | 0.00 | 71 | 1014.5 |
| 20260506151301 | 11 | 101 | 1.6 | 1.6 | 0.00 | 0.00 | 0.00 | 69 | 1014.6 |
| 20260506150758 | 11 | 106 | 0.0 | 1.6 | 0.00 | 0.00 | 0.00 | 73 | 1014.5 |
| 20260506150303 | 10 | 112 | 0.0 | 0.0 | 0.00 | 0.00 | 0.00 | 74 | 1014.7 |
| 20260506145752 | 10 | 107 | 0.0 | 1.6 | 0.00 | 0.00 | 0.00 | 73 | 1014.3 |
| 20260506145248 | 10 | 145 | 0.0 | 0.0 | 0.00 | 0.00 | 0.00 | 75 | 1014.3 |
| 20260506144746 | 10 | 107 | 0.0 | 0.0 | 0.00 | 0.00 | 0.00 | 76 | 1014.4 |
| 20260506144242 | 9 | 110 | 0.0 | 1.6 | 0.00 | 0.00 | 0.00 | 77 | 1014.6 |
| 20260506143740 | 10 | 103 | 1.6 | 1.6 | 0.00 | 0.00 | 0.00 | 76 | 1014.0 |
| 20260506143237 | 9 | 102 | 0.0 | 1.6 | 0.00 | 0.00 | 0.00 | 77 | 1014.4 |
| 20260506142736 | 8 | 102 | 0.0 | 0.0 | 0.00 | 0.00 | 0.00 | 78 | 1014.4 |
| 20260506142233 | 8 | 123 | 0.0 | 0.0 | 0.00 | 0.00 | 0.00 | 80 | 1014.2 |
| 20260506141731 | 8 | 133 | 0.0 | 0.0 | 0.00 | 0.00 | 0.00 | 81 | 1014.3 |
| 20260506141229 | 7 | 133 | 0.0 | 0.0 | 0.00 | 0.00 | 0.00 | 83 | 1014.2 |
| 20260506140727 | 7 | 133 | 0.0 | 0.0 | 0.00 | 0.00 | 0.00 | 83 | 1014.2 |
| 20260506140223 | 7 | 133 | 0.0 | 0.0 | 0.00 | 0.00 | 0.00 | 83 | 1014.3 |
| 20260506135720 | 7 | 132 | 0.0 | 0.0 | 0.00 | 0.00 | 0.00 | 84 | 1013.9 |
| 20260506135216 | 6 | 129 | 0.0 | 0.0 | 0.00 | 0.00 | 0.00 | 85 | 1014.6 |
| 20260506134714 | 6 | 129 | 0.0 | 0.0 | 0.00 | 0.00 | 0.00 | 87 | 1014.4 |
| 20260506134209 | 6 | 100 | 0.0 | 0.0 | 0.00 | 0.00 | 0.00 | 86 | 1014.4 |
| 20260506133707 | 6 | 98 | 0.0 | 0.0 | 0.00 | 0.00 | 0.00 | 88 | 1014.3 |
| 20260506133203 | 5 | 96 | 0.0 | 0.0 | 0.00 | 0.00 | 0.00 | 89 | 1014.4 |
| 20260506132701 | 5 | 101 | 0.0 | 0.0 | 0.00 | 0.00 | 0.00 | 90 | 1014.2 |
| 20260506132157 | 5 | 108 | 0.0 | 0.0 | 0.00 | 0.00 | 0.00 | 91 | 1014.3 |
| 20260506131655 | 5 | 120 | 0.0 | 0.0 | 0.00 | 0.00 | 0.00 | 92 | 1013.9 |
| 20260506131151 | 5 | 126 | 0.0 | 0.0 | 0.00 | 0.00 | 0.00 | 93 | 1014.0 |
| 20260506130648 | 4 | 139 | 0.0 | 0.0 | 0.00 | 0.00 | 0.00 | 94 | 1014.2 |
| 20260506130145 | 3 | 139 | 0.0 | 0.0 | 0.00 | 0.00 | 0.00 | 94 | 1013.9 |
| 20260506125644 | 3 | 140 | 0.0 | 0.0 | 0.00 | 0.00 | 0.00 | 94 | 1013.8 |
| 20260506125141 | 3 | 125 | 0.0 | 0.0 | 0.00 | 0.00 | 0.00 | 95 | 1013.8 |
| 20260506124639 | 3 | 122 | 0.0 | 0.0 | 0.00 | 0.00 | 0.00 | 95 | 1014.2 |
| 20260506124136 | 3 | 122 | 0.0 | 0.0 | 0.00 | 0.00 | 0.00 | 95 | 1013.8 |
| 20260506123634 | 3 | 122 | 0.0 | 0.0 | 0.00 | 0.00 | 0.00 | 95 | 1013.8 |
| 20260506123132 | 3 | 122 | 0.0 | 0.0 | 0.00 | 0.00 | 0.00 | 95 | 1013.7 |
| 20260506122629 | 3 | 121 | 0.0 | 0.0 | 0.00 | 0.00 | 0.00 | 95 | 1013.8 |
| 20260506122126 | 3 | 123 | 0.0 | 0.0 | 0.00 | 0.00 | 0.00 | 95 | 1013.8 |
| 20260506121624 | 3 | 151 | 0.0 | 0.0 | 0.00 | 0.00 | 0.00 | 95 | 1013.7 |
| 20260506121120 | 3 | 152 | 0.0 | 0.0 | 0.00 | 0.00 | 0.00 | 95 | 1013.6 |
| 20260506120618 | 3 | 152 | 0.0 | 0.0 | 0.00 | 0.00 | 0.00 | 95 | 1013.6 |
| 20260506120115 | 3 | 152 | 0.0 | 0.0 | 0.00 | 0.00 | 0.00 | 95 | 1013.6 |
| 20260506115614 | 3 | 152 | 0.0 | 0.0 | 0.00 | 0.00 | 0.00 | 95 | 1013.5 |
| 20260506115112 | 3 | 153 | 0.0 | 0.0 | 0.00 | 0.00 | 0.00 | 95 | 1013.5 |
| 20260506114608 | 3 | 153 | 0.0 | 0.0 | 0.00 | 0.00 | 0.00 | 95 | 1013.5 |
| 20260506114107 | 4 | 153 | 0.0 | 0.0 | 0.00 | 0.00 | 0.00 | 95 | 1013.4 |
| 20260506113604 | 4 | 153 | 0.0 | 0.0 | 0.00 | 0.00 | 0.00 | 95 | 1013.4 |
| 20260506113101 | 3 | 153 | 0.0 | 0.0 | 0.00 | 0.00 | 0.00 | 94 | 1013.5 |
| 20260506112557 | 4 | 154 | 0.0 | 0.0 | 0.00 | 0.00 | 0.00 | 94 | 1013.6 |
| 20260506112055 | 4 | 162 | 0.0 | 1.6 | 0.00 | 0.00 | 0.00 | 94 | 1013.5 |
| 20260506111553 | 4 | 158 | 1.6 | 1.6 | 0.00 | 0.00 | 0.00 | 93 | 1013.5 |
| 20260506111050 | 4 | 148 | 0.0 | 0.0 | 0.00 | 0.00 | 0.00 | 93 | 1013.5 |
| 20260506110548 | 4 | 121 | 0.0 | 0.0 | 0.00 | 0.00 | 0.00 | 93 | 1013.3 |
| 20260506110045 | 4 | 120 | 0.0 | 0.0 | 0.00 | 0.00 | 0.00 | 92 | 1013.2 |
| 20260506105541 | 4 | 121 | 0.0 | 0.0 | 0.00 | 0.00 | 0.00 | 92 | 1013.3 |
| 20260506105038 | 4 | 121 | 0.0 | 0.0 | 0.00 | 0.00 | 0.00 | 92 | 1013.3 |
| 20260506104536 | 5 | 128 | 0.0 | 0.0 | 0.00 | 0.00 | 0.00 | 92 | 1013.2 |
| 20260506104034 | 5 | 151 | 0.0 | 0.0 | 0.00 | 0.00 | 0.00 | 92 | 1013.2 |
| 20260506103531 | 5 | 134 | 0.0 | 0.0 | 0.00 | 0.00 | 0.00 | 91 | 1013.0 |
| 20260506103027 | 5 | 127 | 0.0 | 0.0 | 0.00 | 0.00 | 0.00 | 91 | 1012.7 |
| 20260506102526 | 5 | 126 | 0.0 | 0.0 | 0.00 | 0.00 | 0.00 | 91 | 1013.0 |
| 20260506102023 | 5 | 133 | 0.0 | 0.0 | 0.00 | 0.00 | 0.00 | 91 | 1012.9 |
| 20260506101519 | 5 | 134 | 0.0 | 0.0 | 0.00 | 0.00 | 0.00 | 91 | 1012.9 |
| 20260506101017 | 5 | 132 | 0.0 | 0.0 | 0.00 | 0.00 | 0.00 | 91 | 1012.9 |
| 20260506100515 | 5 | 132 | 0.0 | 0.0 | 0.00 | 0.00 | 0.00 | 91 | 1012.9 |
| 20260506100013 | 5 | 145 | 0.0 | 0.0 | 0.00 | 0.00 | 0.00 | 91 | 1012.6 |
| 20260506095511 | 5 | 142 | 0.0 | 0.0 | 0.00 | 0.00 | 0.00 | 91 | 1012.7 |
| 20260506095007 | 5 | 107 | 0.0 | 0.0 | 0.00 | 0.00 | 0.00 | 91 | 1012.6 |
| 20260506094505 | 5 | 120 | 0.0 | 0.0 | 0.00 | 0.00 | 0.00 | 91 | 1012.7 |
| 20260506094003 | 5 | 123 | 0.0 | 0.0 | 0.00 | 0.00 | 0.00 | 91 | 1012.9 |
| 20260506093501 | 5 | 138 | 0.0 | 0.0 | 0.00 | 0.00 | 0.00 | 90 | 1012.6 |
| 20260506092958 | 5 | 141 | 0.0 | 0.0 | 0.00 | 0.00 | 0.00 | 90 | 1012.7 |
| 20260506092456 | 6 | 142 | 0.0 | 0.0 | 0.00 | 0.00 | 0.00 | 91 | 1012.6 |
| 20260506091952 | 5 | 123 | 0.0 | 0.0 | 0.00 | 0.00 | 0.00 | 91 | 1012.6 |
| 20260506091450 | 6 | 123 | 0.0 | 0.0 | 0.00 | 0.00 | 0.00 | 91 | 1012.6 |
| 20260506090947 | 6 | 133 | 0.0 | 0.0 | 0.00 | 0.00 | 0.00 | 91 | 1012.5 |
| 20260506090445 | 6 | 147 | 0.0 | 0.0 | 0.00 | 0.00 | 0.00 | 91 | 1012.6 |
| 20260506085941 | 6 | 148 | 0.0 | 0.0 | 0.00 | 0.00 | 0.00 | 90 | 1012.6 |